Погода в Семиярке

Погода в Семиярке : погода сейчас, прогноз погоды и архив. Всё, что Вы хотите узнать о погоде в Семиярке!

Хотите узнать прогноз погоды в Семиярке? Тогда Вам сюда: Погода в Семиярке

Поиск расширенной информации на нашем сайте:

Другие новости

Новости СМИ2

Главная страница сайта

Новости сайта

03.07.2017

Напоминаем, что на нашем специализированном сайте Метеоцентр.Азия вы можете получить высокодетализированные автоматические прогнозы погоды по пунктам России, СНГ и мира в авиационном формате (включающие направление и скорость ветра, видимость, явления погоды, количество и форму облачности, нижнюю и верхнюю границу облачности).


Погода в Семиярке - сегодня

Время (UTC), дата Ветер
(°,м/с) 
Видим.   Явления Облачность Т
(°С)
Тd
(°С)
f(%) Тe
(°С)
Pmin
(гПа)
dP
(гПа)
Po
(мм)
O2
(г/м3)
Тmin Tmax R s Состояние
почвы
18 16.04.18 250 (З) н/о    4/4 600 м 
[Sc]
+6.8 +0.2 63 +5  1012.6  1.1  746  293    +15.5       
00 17.04.18 240 (ЮЗ) 20000 м    8/8 600 м 
[Sc]
+5.1 +0.4 72 +3  1014  0.7  747  295           
06 17.04.18 310 (СЗ) 20000 м    8/4 600 м кучево-дожд., средняя, верхняя 
[Cb calv|Ac trans|Ci fib]
+9.7 +0.6 53 +8  1016.2  1.6  749  291  +4         
09 17.04.18 330 (СЗ) 20000 м    8/6 600 м кучево-дожд., верхняя 
[Cb calv|Ci fib]
+10.4 +0.7 51 +9  1016.1  749  290           
12 17.04.18 040 (СВ) 20000 м    8/4 600 м кучево-дожд., средняя 
[Cb calv|Ac und]
+9.9 -0.4 49 +9  1015.9  -0.3  749  291           
15 17.04.18 020 (С) н/о    9/9 600 м кучево-дожд. 
[Cb calv]
+5.3 -1.5 61 +3  1017.2  749  296    +11.9       
18 17.04.18 020 (С) н/о    6/6 600 м 
[Sc]
+2.9 -3.6 62 1018.4  750  299    +11.9       
21 17.04.18 030 (СВ) н/о    10/10 600 м 
[Sc]
+2.3 -2.7 69 -1  1019.3  0.9  751  300           
00 18.04.18 090 (В) 20000 м    9/9 600 м 
[Sc]
+0 -2.4 84 -3  1020  0.5  751  303           
06 18.04.18 050 (СВ) 20000 м    10/10 600 м 
[Sc]
+3.8 -5.4 51 +2  1021.3  0.3  752  299  +0         
09 18.04.18 070 (В) 20000 м    9/8 600 м средняя, верхняя 
[Sc|Ac trans|Ci fib]
+7 -12.1 24 +7  1020.2  -0.6  752  296           
12 18.04.18 тихо ()   20000 м    4/1 600 м средняя, верхняя 
[Sc diur, vesp|Ac lent|Ci fib]
+7.4 -11.2 25 +7  1019.9  -0.2  751  296           
15 18.04.18 220 (ЮЗ) н/о    1/0 верхняя 
[Ci sp]
+4.1 -6.7 45 +5  1020.8  0.7  752  299    +8.1       
18 18.04.18 180 (Ю) н/о    ясно 
-0.7 -4.2 77 -3  1020.7  -0.5  752  304    +8.1       
21 18.04.18 140 (ЮВ) н/о    ясно 
-1.4 -3 89 -4  1018.1  -2.6  750  304           
03 19.04.18 120 (ЮВ) 20000 м  {ливн. осадки}  10/10 600 м кучево-дожд. 
[Cb calv]
+0.8 -2.1 81 -3  1012.9  -2.4  746  300      равномерный
мокрый или
старый снег
100% 
09 19.04.18 130 (ЮВ) 20000 м  {ливн. осадки}  9/9 600 м кучево-дожд. 
[Cb calv]
+8.5 +2 64 +7  1010.7  -0.6  745  291           
21 19.04.18 270 (З) н/о    ясно 
-1.8 -5.3 77 -3  1023.8  0.8  754  306           
00 20.04.18 220 (ЮЗ) 20000 м    ясно 
-2.8 -6.2 77 -5  1024.4  0.5  754  308           
06 20.04.18 200 (Ю) 20000 м    ясно 
+8.3 -4.4 40 +6  1022.7  -1.3  753  295  -3.2         
09 20.04.18 210 (ЮЗ) 20000 м    4/0 верхняя 
[Ci fib]
+12.1 -6.1 27 +11  1020.4  -2  752  291           
12 20.04.18 180 (Ю) 20000 м    8/4 600 м кучево-дожд., средняя, верхняя 
[Cb calv|Ac trans|Ci sp]
+13.2 -6.6 25 +13  1018.1  -2.2  750  289           
15 20.04.18 150 (ЮВ) н/о    6/3 600 м кучево-дожд., средняя, верхняя 
[Cb calv|Ac trans|Ci sp]
+7.7 -1.6 52 +6  1017.9  -0.5  750  294    +14.3       
18 20.04.18 140 (ЮВ) н/о    4/4 600 м 
[Sc]
+5.5 -0.6 65 +5  1017.9  -0.2  750  296    +14.3       
21 20.04.18 130 (ЮВ) н/о    8/8 600 м 
[Sc]
+5.3 +0.4 71 +4  1016.9  -1  749  296           
Время (UTC), дата Ветер
(°,м/с) 
Видим.   Явления Облачность Т
(°С)
Тd
(°С)
f(%) Тe
(°С)
Pmin
(гПа)
dP
(гПа)
Po
(мм)
O2
(г/м3)
Тmin Tmax R s Состояние
почвы

Для получения пояснительной информации подведите курсор к названию столбца.

ПОГОДА в Семиярке - архив

Всё, что Вы хотите узнать о погоде в Семиярке - удобно и подробно!

Выберите нужную дату (начиная с 1 января 2015* года) и нажмите кнопку "Найти".
Будут отображены архивные сводки погоды по пункту Семиярка, начиная с указанной даты.


Отображать данные в формате CSV (для использования в таблицах Excel)


Внимание! Наш архив погоды предназначен исключительно для личного некоммерческого использования в познавательных целях. Если Вам необходимы официальные справки о состоянии погоды (для производственных, юридических, коммерческих и т.п. целей), обращайтесь в органы Росгидромета.

*Примечание: данная дата относится к архиву по метеостанциям СССР (Россия, СНГ, Балтия).
Архив по метеостанциям Зарубежной Европы и Азии (кроме Китая) хранится 10 дней, по другим регионам земного шара (Китай, Африка, Америка, Австралия, Океания) - 1 день.

Семиярка - район местоположения метеостанции


Название, широта, долгота, высота метеостанции:
Семиярка 50.9°ш. 78.3°д. 149 м над ур. моря [Казахстан]

Дополнительная информация

В oтличие oт бoльшинства пoгoдных сайтoв мы публикуем пoдрoбную метеoинфoрмацию в детальнoм прoфессиoнальнoм фoрмате.

Характеристики температуры и влажнoсти вoздуха измеряются на высoте 2 м в тени вдали oт зданий и деревьев.
Скoрoсть ветра измеряется на высoте 10 м (на урoвне рoста челoвека скoрoсть ветра ниже в 1.5-2 раза). Если метеoстанция нахoдится в гoрoде или в лесу, тo скoрoсть ветра занижена на 2-4 м/с пo сравнению с oткрытым местoм. Скoрoсть ветра над акватoриями крупных рек и oзёр, а также на вершинах хoлмoв на 2-5 м/с выше, чем в oбычных услoвиях.
Атмoсфернoе давление в разных тoчках местнoсти мoжет значительнo oтличаться oт давления на метеoстанции, в зависимoсти oт услoвий рельефа (при пoдъёме на 10 м давление пoнижается примернo на 1 мм рт.ст.).